Location: Ferchesar
(52.6477°N, 12.4298°E)
Time: 17:31:53
(UTC+01:00)

Explorer 7 - Pass Details

Date: 13 December 2021
Orbit: 483 x 674 km, 50.3° (Epoch: 23 January)

Event Time Altitude Azimuth Distance (km) Brightness Sun altitude
Rises 03:29:22 0° 237° (WSW) 2,928 - -41.4°
Reaches altitude 10° 03:31:49 10° 231° (SW) 1,993 - -41.1°
Maximum altitude 03:36:09 43° 160° (SSE) 842 - -40.4°
Drops below altitude 10° 03:40:15 10° 88° (E) 1,883 - -39.8°
Exits shadow 03:40:38 - 87° (E) 2,029 10.4 -39.8°
Sets 03:42:30 0° 82° (E) 2,747 11.3 -39.5°
